Content
SEND FEEDBACK

Daily
Averages
Monthly
Summary
United States of America

ASHEVILLE, NORTH CAROLINA


Home > North America > United States > North Carolina
Elevation: 682 meters     Latitude: 35 36N     Longitude: 082 32W

WEATHER
 
SELECT A DAY
Number of Records: 225,800;   Date Range: 1/1/95 - 7/28/14
 
SHARE

PRINT THIS DATA

[ ← Previous Day ]
WEATHER ALMANAC - 16 JANUARY, 2013
[ Next Day → ]
[ °F ]   °C
Weather ElementAverageHighLow
Temperature11.1 °C13.3 °C (1:54 pm)7.2 °C (2:54 am)
Dewpoint10.3 °C12.2 °C (4:54 pm)7 °C (5:17 am)
Humidity95 %100 % (2:54 am)87 % (2:54 pm)
Barometer1015.2 hPa1016.9 hPa (9:51 am)1013.9 hPa (5:54 am)
Wind Speed5.3 km/h16.7 km/h (9:40 am)
Weather ElementAverage
Visibility10.1 km
Wind DirectionSE (138 °)

Weather ElementTotal
Precipitation14.22 mm
Heating Degree Days8.1 (Base 18.3)
Growing Degree Days0.3 (Base 10)
Averaged from 46 records on 16 January, 2013
WEATHER CONDITIONS BREAKOUT
WIND DIRECTION BREAKOUT
WEATHER BY HOUR - 16 JANUARY, 2013
[ °F ]   °C
Local TimeTemperatureDewpointHumidityBarometerVisibilityWind DirectionWind SpeedGust SpeedPrecipitationEventsConditions
2:54 AM7.2 °C7.2 °C100 %1015.2 hPa3.2 kmSSE (160°)11.1 km/h0.25 mmRainLight Rain
3:54 AM7.2 °C7.2 °C100 %1014.9 hPa3.2 kmSouth (170°)7.4 km/h0.51 mmRainLight Rain
4:54 AM7.8 °C7.2 °C96 %1014.2 hPa3.2 kmSSE (160°)7.4 km/h0.51 mmOvercast
5:17 AM8 °C7 °C93 %1014.2 hPa3.2 kmCalm0 mmRainLight Rain
5:54 AM8.3 °C8.3 °C100 %1013.9 hPa3.2 kmSouth (170°)7.4 km/h0 mmOvercast
6:54 AM8.9 °C8.3 °C96 %1014.2 hPa3.2 kmSouth (170°)14.8 km/h1.27 mmRainLight Rain
7:26 AM9 °C8 °C93 %1014.6 hPa3.2 kmSSE (160°)11.1 km/h1.78 mmRainRain
7:54 AM9.4 °C8.9 °C97 %1014.6 hPa3.2 kmSouth (170°)5.6 km/h2.54 mmRainLight Rain
8:13 AM9 °C9 °C100 %1015.2 hPa3.2 kmCalm0 mmOvercast
8:32 AM9 °C9 °C100 %1015.6 hPa3.2 kmCalm0 mmRainLight Rain
8:54 AM9.4 °C8.9 °C97 %1015.2 hPa3.2 kmSouth (190°)5.6 km/h0 mmOvercast
9:29 AM10 °C9 °C94 %1016.6 hPa16.1 kmNNW (330°)14.8 km/h0 mmRainLight Rain
9:40 AM10 °C9 °C94 %1016.6 hPa16.1 kmNNW (340°)16.7 km/h0 mmRainLight Rain
9:51 AM10 °C9 °C94 %1016.9 hPa16.1 kmNNW (330°)14.8 km/h0 mmRainLight Rain
9:54 AM10 °C9.4 °C96 %1016.6 hPa16.1 kmNNW (340°)14.8 km/h0 mmRainLight Rain
10:33 AM11 °C10 °C94 %1016.9 hPa12.9 kmNW (320°)11.1 km/h0.25 mmRainLight Rain
10:54 AM11.1 °C10.6 °C97 %1016.3 hPa3.2 kmNW (310°)11.1 km/h0.25 mmRainLight Rain
11:06 AM11 °C11 °C100 %1016.6 hPa3.2 kmNorth (350°)5.6 km/h0 mmRainLight Rain
11:31 AM11 °C11 °C100 %1016.3 hPa3.2 kmNNE (20°)5.6 km/h0.25 mmOvercast
11:54 AM11.7 °C10.6 °C93 %1015.2 hPa16.1 kmNNW (330°)5.6 km/h0.25 mmOvercast
12:46 PM12 °C11 °C94 %1015.2 hPa4.8 kmCalmOvercast
12:54 PM12.2 °C11.1 °C93 %1014.9 hPa4.8 kmCalmOvercast
1:27 PM13 °C12 °C94 %1014.9 hPa8 kmSSE (160°)7.4 km/hOvercast
1:54 PM13.3 °C11.7 °C90 %1013.9 hPa8 kmSouth (170°)5.6 km/hOvercast
2:25 PM13 °C11 °C88 %1014.9 hPa16.1 kmSouth (170°)9.3 km/hOvercast
2:40 PM13 °C11 °C88 %1014.9 hPa16.1 kmSSE (150°)5.6 km/hOvercast
2:54 PM13.3 °C11.1 °C87 %1014.2 hPa16.1 kmCalmOvercast
3:01 PM13 °C11 °C88 %1014.9 hPa16.1 kmCalm0 mmRainLight Rain
3:26 PM13 °C12 °C94 %1015.2 hPa16.1 kmCalmOvercast
3:54 PM13.3 °C11.7 °C90 %1014.2 hPa16.1 kmCalm0 mmOvercast
4:03 PM13 °C12 °C94 %1015.2 hPa16.1 kmCalmOvercast
4:23 PM13 °C12 °C94 %1015.2 hPa16.1 kmCalmOvercast
4:51 PM13 °C12 °C94 %1015.6 hPa16.1 kmNW (320°)7.4 km/h0 mmRainLight Rain
4:54 PM12.8 °C12.2 °C96 %1014.6 hPa16.1 kmNW (320°)9.3 km/h0 mmRainLight Rain
5:54 PM12.8 °C12.2 °C96 %1015.2 hPa16.1 kmNNW (330°)9.3 km/h0 mmOvercast
6:54 PM12.2 °C11.1 °C93 %1015.2 hPa16.1 kmCalmOvercast
7:37 PM12 °C11 °C94 %1015.9 hPa14.5 kmNorth (350°)9.3 km/h0 mmRainLight Rain
7:54 PM12.2 °C10.6 °C90 %1015.2 hPa16.1 kmNorth (360°)7.4 km/h0 mmOvercast
8:54 PM11.7 °C11.1 °C96 %1015.6 hPa16.1 kmCalm0 mmOvercast
9:54 PM11.7 °C11.1 °C96 %1015.6 hPa14.5 kmCalm0 mmRainLight Rain
10:26 PM12 °C11 °C94 %1015.9 hPa6.4 kmCalm0.76 mmRainLight Rain
10:35 PM12 °C11 °C94 %1015.9 hPa11.3 kmCalm0.76 mmRainLight Rain
10:54 PM11.1 °C11.1 °C100 %1015.2 hPa6.4 kmCalm1.27 mmRainLight Rain
11:36 PM11 °C11 °C100 %1015.6 hPa8 kmCalm1.02 mmRainLight Rain
11:44 PM11 °C11 °C100 %1015.6 hPa8 kmCalm1.27 mmRainLight Rain
11:54 PM11.1 °C11.1 °C100 %1014.2 hPa6.4 kmCalm1.27 mmRainLight Rain
Hourly data recorded from KAVL, located 0 kilometers away from Asheville, North Carolina







STORIES FROM OUR PARTNERS